FREGAT RB/CLUSTER 2

Satellite information

Favourite Embed

Satellite Type and Status

PAYLOADIN ORBIT

Key statistics

Satellite FREGAT RB/CLUSTER 2 at a glance.

Uptime

9242

Days in orbit

Revolutions

≈ 4.6

Per day

Orbit

HEO

HEO

Inclination

65.1

Latest

Satellite identification and parameters

Extended collection of information and parameters for FREGAT RB/CLUSTER 2.

Object identification

Identified? True

Debris? False

Object name: FREGAT RB/CLUSTER 2

International designator: 2000-015A

Object number (NORAD): 26106

Object ID (CCSDS): 26106

Country: COMMONWEALTH OF INDEPENDENT STATES (CIS)

Current information (Y/N): Y

RCS size: LARGE

Orbital parameters

Period: 312.198 minutes

Inclination: 65.0997 deg

SMA: 15244.501 km

Apoapsis: 17211.329 km

Periapsis: 521.402 km

RAAN: 266.9504 deg

Eccentricy: 0.5474081

Argument of periapsis: 283.094 deg

Mean anomaly: 23.8424 deg

Mean motion: 4.61246372 rev/day

Mean motion (dot): 0.00000058 rev/day2

B* drag term: 0.000082664 1/REarth

Two-line elements (TLE)

Creation date: July 7, 2025, 6:34 p.m.

Reference frame: TEME

Reference center: EARTH

Epoch: July 7, 2025, 5:06 a.m. UTC

TLE line 0: 0 FREGAT RB/CLUSTER 2

TLE line 1: 1 26106U 00015A 25188.21314070 .00000058 00000-0 82664-4 0 9996

TLE line 2: 2 26106 65.0997 266.9504 5474081 283.0940 23.8424 4.61246372422297

Live tracking on map

Real-time ground track for satellite FREGAT RB/CLUSTER 2.

In-orbit conjunctions

A list of the most updated potential collisions computed for object FREGAT RB/CLUSTER 2.

Target Orbit TCA Probability of collision Miss distance Type
BREEZE-M R/B OTHER 2025-05-17 15:29:23 TBA 2250.0 (m) ROCKET BODY

Associated space launch

Dumsat (Dummy Satellite) consisted of a mass dummy representing the mass properties of two Cluster satellites fixed to the Fregat upper stage.

FREGAT RB/CLUSTER 2 was lifted into orbit during the mission ‘Soyuz-U-PVB | Dumsat’, on board a Soyuz-U-PVB space rocket.

The launch took place on March 20, 2000, 6:28 p.m. from 31/6.

For more information about the launch, click the button.

Launch to space Soyuz-U-PVB | Dumsat
Soyuz-U-PVB | Dumsat

Agency: N/A

Status: Launch Successful

Launch date: March 20, 2000, 6:28 p.m. UTC

Rocket: Soyuz-U-PVB

Launch pad: 31/6

Location: Baikonur Cosmodrome, Republic of Kazakhstan

...

Latest news about this satellite

There are no fresh news available about this satellite. Check back as we update our databases every day.


Newsletter sign-up

Weekly statistics, charts and insights to help you stay on top of the space industry.